CW5517 Weather Reports


Display with metric or nautical units.
time (UTC)temp
F
wind
direction
speed
MPH
gust
MPH
rain 1hr
in
rain 24hr
in
rain mn
in
humidity
%
barometer
mb
20200710201834 84 121 0.0 6.0 0.00 0.00 0.00 59 1011.3
20200710201319 84 141 1.0 7.0 0.00 0.00 0.00 58 1011.2
20200710200831 83 128 1.0 7.0 0.00 0.00 0.00 57 1011.2
20200710200319 83 188 0.0 8.0 0.00 0.00 0.00 57 1011.1
20200710195825 83 227 1.0 8.0 0.00 0.00 0.00 59 1011.1
20200710195335 83 217 5.0 8.0 0.00 0.00 0.00 61 1011.2
20200710194822 83 198 0.0 8.0 0.00 0.00 0.00 59 1011.2
20200710194329 83 219 3.0 8.0 0.00 0.00 0.00 59 1011.2
20200710193836 82 281 1.0 6.0 0.00 0.00 0.00 59 1011.2
20200710193323 82 225 0.0 0.0 0.00 0.00 0.00 61 1011.2
20200710192834 82 211 0.0 0.0 0.00 0.00 0.00 64 1011.3
20200710192325 81 212 0.0 8.0 0.00 0.00 0.00 63 1011.4
20200710191836 81 211 0.0 8.0 0.00 0.00 0.00 64 1011.4
20200710191323 81 215 1.0 5.0 0.00 0.00 0.00 63 1011.7
20200710190830 82 169 0.0 7.0 0.00 0.00 0.00 64 1011.6
20200710190335 82 202 0.0 7.0 0.00 0.00 0.00 62 1011.6
20200710185821 83 229 4.0 9.0 0.00 0.00 0.00 62 1011.6
20200710185332 83 242 4.0 9.0 0.00 0.00 0.00 61 1011.7
20200710184820 83 155 3.0 7.0 0.00 0.00 0.00 63 1011.7
20200710184329 83 201 1.0 6.0 0.00 0.00 0.00 63 1011.9
20200710183821 83 147 0.0 8.0 0.00 0.00 0.00 62 1012.0
20200710183329 83 214 1.0 8.0 0.00 0.00 0.00 63 1012.1
20200710182819 83 238 4.0 8.0 0.00 0.00 0.00 59 1012.2
20200710182323 83 170 0.0 0.0 0.00 0.00 0.00 58 1012.3
20200710181832 83 169 0.0 0.0 0.00 0.00 0.00 59 1012.4
20200710181322 83 193 0.0 4.0 0.00 0.00 0.00 62 1012.4
20200710180832 82 192 1.0 6.0 0.00 0.00 0.00 60 1012.5
20200710180317 82 201 2.0 6.0 0.00 0.00 0.00 59 1012.7
20200710175824 82 192 1.0 7.0 0.00 0.00 0.00 66 1012.9
20200710175331 81 203 2.0 10.0 0.00 0.00 0.00 65 1012.9
20200710174821 81 198 4.0 10.0 0.00 0.00 0.00 65 1013.0
20200710174327 81 205 3.0 11.0 0.00 0.00 0.00 65 1013.1
20200710173817 81 134 1.0 11.0 0.00 0.00 0.00 67 1013.2
20200710173324 82 227 4.0 9.0 0.00 0.00 0.00 65 1013.2
20200710172835 82 136 0.0 7.0 0.00 0.00 0.00 64 1013.4
20200710172323 83 111 0.0 9.0 0.00 0.00 0.00 65 1013.4
20200710171831 82 146 1.0 9.0 0.00 0.00 0.00 64 1013.4
20200710171318 82 176 1.0 8.0 0.00 0.00 0.00 65 1013.5
20200710170822 82 183 1.0 8.0 0.00 0.00 0.00 64 1013.4
20200710170330 82 215 4.0 10.0 0.00 0.00 0.00 69 1013.4
20200710165819 82 271 4.0 10.0 0.00 0.00 0.00 67 1013.6
20200710165328 82 227 5.0 11.0 0.00 0.00 0.00 64 1013.6
20200710164836 82 188 1.0 9.0 0.00 0.00 0.00 63 1013.6
20200710164324 82 227 0.0 9.0 0.00 0.00 0.00 64 1013.7
20200710163832 82 209 5.0 9.0 0.00 0.00 0.00 63 1013.7
20200710163320 82 267 0.0 6.0 0.00 0.00 0.00 64 1013.7
20200710162831 82 220 3.0 7.0 0.00 0.00 0.00 66 1013.8
20200710162323 81 196 0.0 13.0 0.00 0.00 0.00 65 1013.8
20200710161818 81 207 7.0 13.0 0.00 0.00 0.00 65 1013.8
20200710161329 81 238 0.0 7.0 0.00 0.00 0.00 64 1013.7
20200710160820 81 200 2.0 7.0 0.00 0.00 0.00 66 1013.8
20200710160325 81 210 0.0 8.0 0.00 0.00 0.00 67 1013.8
20200710155834 81 231 2.0 8.0 0.00 0.00 0.00 68 1013.9
20200710155321 81 215 1.0 8.0 0.00 0.00 0.00 69 1014.0
20200710154828 81 213 0.0 5.0 0.00 0.00 0.00 66 1014.0
20200710154335 81 156 0.0 7.0 0.00 0.00 0.00 67 1013.9
20200710153821 81 172 2.0 7.0 0.00 0.00 0.00 70 1014.1
20200710153331 81 161 0.0 5.0 0.00 0.00 0.00 66 1014.2
20200710152836 81 224 0.0 2.0 0.00 0.00 0.00 68 1014.0
20200710152323 81 181 0.0 5.0 0.00 0.00 0.00 68 1014.1
20200710151830 80 167 0.0 7.0 0.00 0.00 0.00 68 1014.1
20200710151317 80 212 1.0 7.0 0.00 0.00 0.00 68 1014.1
20200710150827 80 208 0.0 3.0 0.00 0.00 0.00 68 1014.2
20200710150333 80 177 0.0 3.0 0.00 0.00 0.00 70 1014.1
20200710145822 80 185 0.0 3.0 0.00 0.00 0.00 71 1014.1
20200710145332 79 215 0.0 5.0 0.00 0.00 0.00 73 1014.3
20200710144824 79 200 1.0 5.0 0.00 0.00 0.00 70 1014.3
20200710144331 79 194 0.0 5.0 0.00 0.00 0.00 71 1014.3
20200710143818 79 223 1.0 5.0 0.00 0.00 0.00 74 1014.3
20200710143326 78 247 2.0 4.0 0.00 0.00 0.00 73 1014.4
20200710142833 78 182 0.0 2.0 0.00 0.00 0.00 76 1014.4
20200710142323 77 181 0.0 3.0 0.00 0.00 0.00 75 1014.4
20200710141832 78 186 0.0 4.0 0.00 0.00 0.00 74 1014.4
20200710141319 78 217 1.0 5.0 0.00 0.00 0.00 75 1014.5
20200710140827 77 223 1.0 5.0 0.00 0.00 0.00 75 1014.5
20200710140331 77 196 0.0 7.0 0.00 0.00 0.00 74 1014.5
20200710135823 77 189 0.0 7.0 0.00 0.00 0.00 75 1014.6
20200710135331 77 232 0.0 0.0 0.00 0.00 0.00 75 1014.6
20200710134817 77 212 0.0 0.0 0.00 0.00 0.00 75 1014.6
20200710134323 77 202 0.0 0.0 0.00 0.00 0.00 77 1014.7
20200710133830 77 228 0.0 0.0 0.00 0.00 0.00 77 1014.7
20200710133320 76 206 0.0 0.0 0.00 0.00 0.00 78 1014.8
20200710132827 76 200 0.0 0.0 0.00 0.00 0.00 78 1014.8
20200710132314 76 242 0.0 0.0 0.00 0.00 0.00 78 1014.9
20200710131824 76 248 0.0 0.0 0.00 0.00 0.00 79 1014.9
20200710131318 76 207 0.0 0.0 0.00 0.00 0.00 80 1014.9
20200710130827 76 235 0.0 0.0 0.00 0.00 0.00 79 1014.9
20200710130333 75 225 0.0 0.0 0.00 0.00 0.00 80 1015.0
20200710125820 75 204 0.0 0.0 0.00 0.00 0.00 80 1015.0
20200710125328 75 188 0.0 0.0 0.00 0.00 0.00 80 1015.1
20200710124816 75 360 0.0 0.0 0.00 0.00 0.00 81 1015.0
20200710124326 75 360 0.0 0.0 0.00 0.00 0.00 82 1014.9
20200710123814 74 360 0.0 0.0 0.00 0.00 0.00 82 1015.0
20200710123325 74 360 0.0 0.0 0.00 0.00 0.00 83 1015.1
20200710122835 74 360 0.0 0.0 0.00 0.00 0.00 83 1015.1
20200710122322 73 205 0.0 0.0 0.00 0.00 0.00 84 1015.1
20200710121829 73 218 0.0 0.0 0.00 0.00 0.00 85 1015.1
20200710121336 73 236 0.0 6.0 0.00 0.00 0.00 86 1015.1
20200710120822 72 188 1.0 7.0 0.00 0.00 0.00 87 1015.0
20200710120330 72 163 1.0 7.0 0.00 0.00 0.00 89 1015.0
20200710115836 71 206 0.0 0.0 0.00 0.00 0.00 90 1015.0
20200710115322 71 226 0.0 0.0 0.00 0.00 0.00 92 1014.9
20200710114828 70 220 0.0 0.0 0.00 0.00 0.00 93 1015.0
20200710114318 70 204 0.0 0.0 0.00 0.00 0.00 93 1014.9
20200710113828 69 221 0.0 0.0 0.00 0.00 0.00 94 1015.0
20200710113335 69 273 0.0 0.0 0.00 0.00 0.00 94 1015.0
20200710112820 68 286 0.0 0.0 0.00 0.00 0.00 94 1014.9
20200710112326 68 286 0.0 0.0 0.00 0.00 0.00 94 1014.9
20200710031830 70 198 0.0 0.0 0.00 0.00 0.00 90 1015.6
20200710031319 70 198 0.0 0.0 0.00 0.00 0.00 90 1015.7
20200710030828 70 198 0.0 0.0 0.00 0.00 0.00 90 1015.8
20200710030336 70 198 0.0 0.0 0.00 0.00 0.00 90 1015.8
20200710025825 70 198 0.0 0.0 0.00 0.00 0.00 90 1015.9
20200710025316 70 198 0.0 0.0 0.00 0.00 0.00 89 1015.9
20200710024829 70 198 0.0 0.0 0.00 0.00 0.00 90 1016.1
20200710024322 70 198 0.0 0.0 0.00 0.00 0.00 89 1016.0
20200710023831 70 198 0.0 0.0 0.00 0.00 0.00 89 1016.1
20200710023319 70 198 0.0 0.0 0.00 0.00 0.00 89 1016.1
20200710022829 70 198 0.0 0.0 0.00 0.00 0.00 89 1016.1
20200710022335 70 198 0.0 0.0 0.00 0.00 0.00 88 1016.1
20200710021824 71 198 0.0 0.0 0.00 0.00 0.00 88 1016.1
20200710021335 71 198 0.0 0.0 0.00 0.00 0.00 88 1016.1
20200710020825 71 198 0.0 0.0 0.00 0.00 0.00 87 1016.1
20200710020331 71 198 0.0 0.0 0.00 0.00 0.00 87 1016.0
20200710015824 72 198 0.0 0.0 0.00 0.00 0.00 86 1015.8
20200710015336 72 198 0.0 0.0 0.00 0.00 0.00 86 1015.8
20200710014823 72 198 0.0 0.0 0.00 0.00 0.00 85 1015.8
20200710014331 72 198 0.0 0.0 0.00 0.00 0.00 85 1015.8
20200710013824 73 198 0.0 0.0 0.00 0.00 0.00 84 1015.9
20200710013335 73 198 0.0 0.0 0.00 0.00 0.00 83 1015.8
20200710012824 73 198 0.0 0.0 0.00 0.00 0.00 83 1015.8
20200710012333 74 198 0.0 0.0 0.00 0.00 0.00 82 1015.8
20200710011822 74 198 0.0 0.0 0.00 0.00 0.00 82 1015.6
20200710011334 74 198 0.0 0.0 0.00 0.00 0.00 81 1015.4
20200710010823 75 198 0.0 0.0 0.00 0.00 0.00 80 1015.3
20200710010331 76 198 0.0 0.0 0.00 0.00 0.00 78 1015.4
20200710005821 77 198 0.0 0.0 0.00 0.00 0.00 76 1015.3
20200709225822 84 211 0.0 7.0 0.00 0.00 0.00 61 1014.9
20200709225329 84 223 2.0 7.0 0.00 0.00 0.00 59 1014.9
20200709224837 84 223 0.0 7.0 0.00 0.00 0.00 62 1014.9
20200709224323 84 219 0.0 8.0 0.00 0.00 0.00 58 1014.9
20200709223830 85 211 3.0 8.0 0.00 0.00 0.00 60 1014.9
20200709223320 85 225 2.0 8.0 0.00 0.00 0.00 60 1014.9
20200709222831 85 231 2.0 7.0 0.00 0.00 0.00 59 1014.9
20200709222320 85 207 0.0 7.0 0.00 0.00 0.00 58 1014.8
20200709221828 85 219 2.0 7.0 0.00 0.00 0.00 58 1014.7
20200709221335 85 198 1.0 8.0 0.00 0.00 0.00 58 1014.7
20200709220823 85 215 1.0 8.0 0.00 0.00 0.00 59 1014.8
20200709220327 86 219 1.0 9.0 0.00 0.00 0.00 58 1014.8
20200709215837 86 174 1.0 9.0 0.00 0.00 0.00 59 1014.8
20200709215324 86 201 1.0 7.0 0.00 0.00 0.00 58 1014.9
20200709214818 86 200 0.0 0.0 0.00 0.00 0.00 59 1014.9
20200709214325 86 190 0.0 4.0 0.00 0.00 0.00 59 1014.8
20200709213835 86 195 0.0 5.0 0.00 0.00 0.00 60 1014.8
20200709213323 86 193 0.0 6.0 0.00 0.00 0.00 58 1015.0
20200709212831 86 217 3.0 6.0 0.00 0.00 0.00 59 1014.9
20200709212318 86 181 0.0 7.0 0.00 0.00 0.00 60 1015.0
20200709211828 86 196 0.0 8.0 0.00 0.00 0.00 58 1015.0
20200709211335 86 209 1.0 8.0 0.00 0.00 0.00 58 1015.1
20200709210823 86 195 1.0 5.0 0.00 0.00 0.00 58 1015.1
20200709210335 86 191 1.0 7.0 0.00 0.00 0.00 58 1015.1
20200709205821 86 217 2.0 7.0 0.00 0.00 0.00 59 1015.1
20200709205328 86 246 2.0 8.0 0.00 0.00 0.00 57 1015.2
20200709204836 86 270 4.0 8.0 0.00 0.00 0.00 58 1015.1
20200709204322 86 286 4.0 8.0 0.00 0.00 0.00 60 1015.2
20200709203832 86 258 5.0 8.0 0.00 0.00 0.00 60 1015.3
20200709203322 85 235 0.0 8.0 0.00 0.00 0.00 58 1015.2
20200709202830 86 219 3.0 8.0 0.00 0.00 0.00 58 1015.2
20200709202321 86 182 0.0 6.0 0.00 0.00 0.00 58 1015.1